FW1574 Weather Reports


Display with metric or nautical units.
time (UTC)temp
F
wind
direction
speed
MPH
gust
MPH
rain 1hr
in
rain 24hr
in
rain mn
in
humidity
%
barometer
mb
20260905150559 85 347 0.0 0.0 0.00 0.00 0.00 75 1013.0
20260905150059 85 327 0.0 0.0 0.00 0.00 0.00 75 1013.0
20260905145558 85 327 0.0 0.0 0.00 0.00 0.00 76 1013.0
20260905145056 85 258 0.0 0.0 0.00 0.00 0.00 76 1013.0
20260905144557 84 243 0.0 0.0 0.00 0.00 0.00 77 1013.1
20260905144056 84 336 0.0 0.0 0.00 0.00 0.00 78 1013.1
20260905143554 84 336 0.0 0.0 0.00 0.00 0.00 79 1013.2
20260905143054 84 314 0.0 0.0 0.00 0.00 0.00 79 1013.2
20260905142554 83 78 0.0 0.0 0.00 0.00 0.00 80 1013.2
20260905142051 83 78 0.0 0.0 0.00 0.00 0.00 80 1013.2
20260905141550 82 78 0.0 0.0 0.00 0.00 0.00 81 1013.2
20260905141048 82 78 0.0 0.0 0.00 0.00 0.00 82 1013.2
20260905140549 81 78 0.0 0.0 0.00 0.00 0.00 83 1013.2
20260905140045 81 78 0.0 0.0 0.00 0.00 0.00 85 1013.3
20260905135549 81 78 0.0 0.0 0.00 0.00 0.00 87 1013.4
20260905135045 80 78 0.0 0.0 0.00 0.00 0.00 86 1013.4
20260905134550 80 78 0.0 0.0 0.00 0.00 0.00 87 1013.4
20260905134044 79 78 0.0 0.0 0.00 0.00 0.00 91 1013.4
20260905133540 77 79 0.0 0.0 0.00 0.00 0.00 95 1013.5
20260905133040 76 79 0.0 0.0 0.00 0.00 0.00 96 1013.5
20260905132540 76 76 0.0 0.0 0.00 0.00 0.00 96 1013.6
20260905132040 76 66 0.0 0.0 0.00 0.00 0.00 96 1013.7
20260905131542 76 66 0.0 0.0 0.00 0.00 0.00 96 1013.7
20260905131039 75 66 0.0 0.0 0.00 0.00 0.00 96 1013.8
20260905130540 75 66 0.0 0.0 0.00 0.00 0.00 96 1013.8
20260905130038 75 66 0.0 0.0 0.00 0.00 0.00 96 1013.7
20260905125538 75 66 0.0 0.0 0.00 0.00 0.00 96 1013.7
20260905125038 74 66 0.0 0.0 0.00 0.00 0.00 96 1013.7
20260905124546 74 66 0.0 0.0 0.00 0.00 0.00 96 1013.6
20260905124037 74 66 0.0 0.0 0.00 0.00 0.00 96 1013.6
20260905123537 74 66 0.0 0.0 0.00 0.00 0.00 96 1013.6
20260905123037 73 66 0.0 0.0 0.00 0.00 0.00 96 1013.6
20260905122540 73 66 0.0 0.0 0.00 0.00 0.00 96 1013.5
20260905122036 73 66 0.0 0.0 0.00 0.00 0.00 95 1013.4
20260905121536 73 66 0.0 0.0 0.00 0.00 0.00 95 1013.4
20260905121034 73 66 0.0 0.0 0.00 0.00 0.00 95 1013.4
20260905120534 73 66 0.0 0.0 0.00 0.00 0.00 95 1013.4
20260905120036 73 66 0.0 0.0 0.00 0.00 0.00 95 1013.4
20260905115533 73 66 0.0 0.0 0.00 0.00 0.00 95 1013.3
20260905115034 73 66 0.0 0.0 0.00 0.00 0.00 95 1013.3
20260905114534 73 66 0.0 0.0 0.00 0.00 0.00 95 1013.3
20260905114032 73 66 0.0 0.0 0.00 0.00 0.00 95 1013.3
20260905113532 73 66 0.0 0.0 0.00 0.00 0.00 94 1013.2
20260905113030 73 66 0.0 0.0 0.00 0.00 0.00 94 1013.1
20260905112530 73 66 0.0 0.0 0.00 0.00 0.00 94 1012.9
20260905112030 73 66 0.0 0.0 0.00 0.00 0.00 94 1013.0
20260905111528 73 66 0.0 0.0 0.00 0.00 0.00 94 1012.9
20260905111028 73 66 0.0 0.0 0.00 0.00 0.00 94 1012.8
20260905110526 73 66 0.0 0.0 0.00 0.00 0.00 94 1012.7
20260905110026 73 66 0.0 0.0 0.00 0.00 0.00 94 1012.7
20260905105526 73 66 0.0 0.0 0.00 0.00 0.00 94 1012.6
20260905105025 73 66 0.0 0.0 0.00 0.00 0.00 94 1012.6
20260905104535 73 66 0.0 0.0 0.00 0.00 0.00 94 1012.4
20260905104028 73 66 0.0 0.0 0.00 0.00 0.00 94 1012.4
20260905103526 73 66 0.0 0.0 0.00 0.00 0.00 94 1012.4
20260905103029 73 66 0.0 0.0 0.00 0.00 0.00 94 1012.4
20260905102525 73 66 0.0 0.0 0.00 0.00 0.00 94 1012.4
20260905102025 73 66 0.0 0.0 0.00 0.00 0.00 94 1012.3
20260905101525 74 66 0.0 0.0 0.00 0.00 0.00 94 1012.4
20260905101023 74 66 0.0 0.0 0.00 0.00 0.00 94 1012.4
20260905100524 74 66 0.0 0.0 0.00 0.00 0.00 94 1012.4
20260905100023 74 66 0.0 0.0 0.00 0.00 0.00 94 1012.4
20260905095522 74 66 0.0 0.0 0.00 0.00 0.00 94 1012.4
20260905095022 74 66 0.0 0.0 0.00 0.00 0.00 94 1012.4
20260905094522 74 66 0.0 0.0 0.00 0.00 0.00 94 1012.3
20260905094021 74 66 0.0 0.0 0.00 0.00 0.00 94 1012.3
20260905093521 74 66 0.0 0.0 0.00 0.00 0.00 93 1012.2
20260905093021 74 66 0.0 0.0 0.00 0.00 0.00 94 1012.2
20260905092520 74 66 0.0 0.0 0.00 0.00 0.00 94 1012.1
20260905092019 74 66 0.0 0.0 0.00 0.00 0.00 94 1012.2
20260905091519 74 66 0.0 0.0 0.00 0.00 0.00 94 1012.1
20260905091022 74 66 0.0 0.0 0.00 0.00 0.00 94 1012.0
20260905090519 74 66 0.0 0.0 0.00 0.00 0.00 94 1012.0
20260905090022 74 66 0.0 0.0 0.00 0.00 0.00 94 1012.1
20260905085518 74 66 0.0 0.0 0.00 0.00 0.00 93 1012.1
20260905085023 74 66 0.0 0.0 0.00 0.00 0.00 93 1012.1
20260905084522 74 66 0.0 0.0 0.00 0.00 0.00 93 1012.0
20260905084017 74 66 0.0 0.0 0.00 0.00 0.00 93 1012.1
20260905083517 74 66 0.0 0.0 0.00 0.00 0.00 93 1012.1
20260905083018 75 66 0.0 0.0 0.00 0.00 0.00 93 1012.1
20260905082518 75 66 0.0 0.0 0.00 0.00 0.00 93 1012.1
20260905082016 75 66 0.0 0.0 0.00 0.00 0.00 93 1012.1
20260905081515 75 66 0.0 0.0 0.00 0.00 0.00 93 1012.0
20260905081018 75 66 0.0 0.0 0.00 0.00 0.00 93 1011.9
20260905080514 75 66 0.0 0.0 0.00 0.00 0.00 93 1011.9
20260905080029 75 66 0.0 0.0 0.00 0.00 0.00 93 1011.9
20260905075513 75 66 0.0 0.0 0.00 0.00 0.00 93 1011.9
20260905075013 75 66 0.0 0.0 0.00 0.00 0.00 93 1011.9
20260905074513 75 66 0.0 0.0 0.00 0.00 0.00 93 1012.0
20260905074012 75 66 0.0 0.0 0.00 0.00 0.00 93 1012.0
20260905073512 75 66 0.0 0.0 0.00 0.00 0.00 93 1012.0
20260905073029 75 66 0.0 0.0 0.00 0.00 0.00 93 1012.0
20260905072513 75 66 0.0 0.0 0.00 0.00 0.00 93 1012.0
20260905072011 75 66 0.0 0.0 0.00 0.00 0.00 93 1012.0
20260905071511 75 66 0.0 0.0 0.00 0.00 0.00 93 1012.1
20260905071010 75 66 0.0 0.0 0.00 0.00 0.00 93 1012.1
20260905070513 75 66 0.0 0.0 0.00 0.00 0.00 93 1012.0
20260905070010 76 66 0.0 0.0 0.00 0.00 0.00 93 1012.0
20260905065509 76 66 0.0 0.0 0.00 0.00 0.00 93 1012.0
20260905065009 76 66 0.0 0.0 0.00 0.00 0.00 93 1012.1
20260905064512 76 66 0.0 0.0 0.00 0.00 0.00 93 1012.2
20260905064009 76 66 0.0 0.0 0.00 0.00 0.00 93 1012.2
20260905063509 76 66 0.0 0.0 0.00 0.00 0.00 93 1012.3
20260905063009 76 66 0.0 0.0 0.00 0.00 0.00 93 1012.3
20260905062509 76 66 0.0 0.0 0.00 0.00 0.00 93 1012.3
20260905062012 76 66 0.0 0.0 0.00 0.00 0.00 93 1012.2
20260905061508 76 66 0.0 0.0 0.00 0.00 0.00 93 1012.1
20260905061007 76 66 0.0 0.0 0.00 0.00 0.00 93 1012.1
20260905060506 76 66 0.0 0.0 0.00 0.00 0.00 93 1012.2
20260905060007 76 66 0.0 0.0 0.00 0.00 0.00 93 1012.3
20260905055506 76 66 0.0 0.0 0.00 0.00 0.00 93 1012.4
20260905055006 76 66 0.0 0.0 0.00 0.00 0.00 92 1012.5
20260905054506 76 66 0.0 0.0 0.00 0.00 0.00 92 1012.4
20260905054004 76 66 0.0 0.0 0.00 0.00 0.00 91 1012.4
20260905053506 77 66 0.0 0.0 0.00 0.00 0.00 91 1012.4
20260905053004 77 66 0.0 0.0 0.00 0.00 0.00 90 1012.4
20260905052503 77 66 0.0 0.0 0.00 0.00 0.00 91 1012.4
20260905052002 77 66 0.0 0.0 0.00 0.00 0.00 91 1012.3
20260905051502 77 66 0.0 0.0 0.00 0.00 0.00 90 1012.3
20260905051002 78 66 0.0 0.0 0.00 0.00 0.00 90 1012.3
20260905050505 78 66 0.0 0.0 0.00 0.00 0.00 90 1012.3
20260905050001 78 66 0.0 0.0 0.00 0.00 0.00 90 1012.3
20260905045502 78 66 0.0 0.0 0.00 0.00 0.00 91 1012.3
20260905045001 78 66 0.0 0.0 0.00 0.00 0.00 91 1012.2
20260905044503 77 66 0.0 0.0 0.00 0.00 0.00 90 1012.1
20260905044100 77 66 0.0 0.0 0.00 0.00 0.00 90 1012.1
20260905043600 77 66 0.0 0.0 0.00 0.00 0.00 91 1012.3
20260905043200 77 66 0.0 0.0 0.00 0.00 0.00 91 1012.3
20260905042601 77 66 0.0 0.0 0.00 0.00 0.00 91 1012.4
20260905042058 77 66 0.0 0.0 0.00 0.00 0.00 91 1012.5
20260905041558 77 66 0.0 0.0 0.00 0.00 0.00 90 1012.5
20260905041055 78 66 0.0 0.0 0.00 0.00 0.00 89 1012.6
20260905040556 78 66 0.0 0.0 0.00 0.00 0.00 88 1012.7
20260905040115 78 66 0.0 0.0 0.00 0.00 0.00 88 1012.6
20260905035553 78 66 0.0 0.0 0.00 0.00 0.00 88 1012.7
20260905035053 78 66 0.0 0.0 0.00 0.00 0.00 87 1012.7
20260905034558 78 66 0.0 0.0 0.00 0.00 0.00 88 1012.8
20260905034055 78 66 0.0 0.0 0.00 0.00 0.00 88 1012.8
20260905033552 78 66 0.0 0.0 0.00 0.00 0.00 87 1012.9
20260905033055 78 66 0.0 0.0 0.00 0.00 0.00 88 1013.1
20260905032553 78 66 0.0 0.0 0.00 0.00 0.00 88 1013.1
20260905032052 78 66 0.0 0.0 0.00 0.00 0.00 88 1013.1
20260905031553 79 66 0.0 0.0 0.00 0.00 0.00 88 1013.2
20260905031051 79 66 0.0 0.0 0.00 0.00 0.00 88 1013.2
20260905030551 79 9 0.0 0.0 0.00 0.00 0.00 88 1013.3
20260905030051 79 9 0.0 0.0 0.00 0.00 0.00 87 1013.3
20260905025551 80 9 0.0 0.0 0.00 0.00 0.00 87 1013.3
20260905025051 80 9 0.0 0.0 0.00 0.00 0.00 86 1013.3
20260905024551 80 9 0.0 0.0 0.00 0.00 0.00 86 1013.3
20260905024050 80 9 0.0 0.0 0.00 0.00 0.00 86 1013.3
20260905023555 80 9 0.0 0.0 0.00 0.00 0.00 87 1013.3
20260905023058 80 9 0.0 0.0 0.00 0.00 0.00 87 1013.3
20260905022549 80 9 0.0 0.0 0.00 0.00 0.00 87 1013.2
20260905022050 80 9 0.0 0.0 0.00 0.00 0.00 86 1013.2
20260905021552 81 9 0.0 0.0 0.00 0.00 0.00 85 1013.2
20260905021049 82 9 0.0 0.0 0.00 0.00 0.00 83 1013.1
20260905020549 82 9 0.0 0.0 0.00 0.00 0.00 83 1013.2
20260905020050 82 9 0.0 0.0 0.00 0.00 0.00 84 1013.2
20260905015549 82 9 0.0 0.0 0.00 0.00 0.00 84 1013.2
20260905015051 82 9 0.0 0.0 0.00 0.00 0.00 84 1013.2
20260905014548 82 9 0.0 0.0 0.00 0.00 0.00 84 1013.2
20260905014048 81 9 0.0 0.0 0.00 0.00 0.00 84 1013.2
20260905013548 81 9 0.0 0.0 0.00 0.00 0.00 85 1013.1
20260905013056 81 9 0.0 0.0 0.00 0.00 0.00 86 1013.1
20260905012550 81 9 0.0 0.0 0.00 0.00 0.00 85 1013.0
20260905012048 81 9 0.0 0.0 0.00 0.00 0.00 84 1012.9
20260905011548 81 9 0.0 0.0 0.00 0.00 0.00 84 1012.9
20260905011047 81 9 0.0 0.0 0.00 0.00 0.00 82 1012.8
20260905010547 82 9 0.0 0.0 0.00 0.00 0.00 81 1012.8
20260905010051 82 9 0.0 0.0 0.00 0.00 0.00 81 1012.8
20260905005547 82 9 0.0 0.0 0.00 0.00 0.00 81 1012.7
20260905005047 82 9 0.0 0.0 0.00 0.00 0.00 80 1012.7
20260905004547 82 9 0.0 0.0 0.00 0.00 0.00 80 1012.7
20260905004046 83 9 0.0 0.0 0.00 0.00 0.00 78 1012.6
20260905003550 83 9 0.0 0.0 0.00 0.00 0.00 78 1012.5
20260905003046 83 9 0.0 0.0 0.00 0.00 0.00 77 1012.6
20260905002548 84 9 0.0 0.0 0.00 0.00 0.00 75 1012.5
20260905002051 85 9 0.0 0.0 0.00 0.00 0.00 75 1012.5
20260905001546 85 9 0.0 0.0 0.00 0.00 0.00 74 1012.4
20260905001045 85 9 0.0 0.0 0.00 0.00 0.00 76 1012.5
20260905000546 85 9 0.0 0.0 0.00 0.00 0.00 77 1012.5
20260905000045 85 9 0.0 0.0 0.00 0.00 0.00 73 1012.5
20260904235546 85 9 0.0 0.0 0.00 0.00 0.00 72 1012.5
20260904235047 86 9 0.0 0.0 0.00 0.00 0.00 71 1012.5
20260904234546 86 9 0.0 0.0 0.00 0.00 0.00 70 1012.3
20260904234044 87 9 0.0 0.0 0.00 0.00 0.00 69 1012.3
20260904233545 88 9 0.0 0.0 0.00 0.00 0.00 67 1012.2
20260904233044 88 9 0.0 0.0 0.00 0.00 0.00 68 1012.1
20260904232544 88 9 0.0 0.0 0.00 0.00 0.00 67 1012.0
20260904232044 89 9 0.0 0.0 0.00 0.00 0.00 65 1012.0
20260904231543 89 9 0.0 0.0 0.00 0.00 0.00 66 1012.0
20260904231042 89 9 0.0 0.0 0.00 0.00 0.00 64 1012.0
20260904230542 90 9 0.0 0.0 0.00 0.00 0.00 64 1012.0
20260904230043 90 9 0.0 0.0 0.00 0.00 0.00 62 1011.9
20260904225544 90 9 0.0 0.0 0.00 0.00 0.00 63 1011.8
20260904225042 91 9 0.0 0.0 0.00 0.00 0.00 61 1011.9
20260904224543 92 9 0.0 0.0 0.00 0.00 0.00 59 1011.9
20260904224042 92 9 0.0 0.0 0.00 0.00 0.00 59 1011.9
20260904223540 93 9 0.0 0.0 0.00 0.00 0.00 58 1011.9
20260904223040 93 9 0.0 0.0 0.00 0.00 0.00 55 1011.8
20260904222538 93 9 0.0 0.0 0.00 0.00 0.00 55 1011.8
20260904222044 94 9 0.0 0.0 0.00 0.00 0.00 55 1011.8
20260904221539 94 9 0.0 0.0 0.00 0.00 0.00 54 1011.7
20260904221038 94 9 0.0 0.0 0.00 0.00 0.00 58 1011.7
20260904220538 93 9 0.0 0.0 0.00 0.00 0.00 57 1011.7
20260904220055 93 9 0.0 0.0 0.00 0.00 0.00 57 1011.5
20260904215536 93 9 0.0 0.0 0.00 0.00 0.00 57 1011.6
20260904215037 94 9 0.0 0.0 0.00 0.00 0.00 55 1011.8
20260904214539 94 13 0.0 0.0 0.00 0.00 0.00 53 1011.7
20260904214036 94 57 0.0 0.0 0.00 0.00 0.00 55 1011.8
20260904213538 94 71 0.0 0.0 0.00 0.00 0.00 52 1011.8
20260904213035 94 124 0.0 0.0 0.00 0.00 0.00 55 1011.9
20260904212534 94 36 0.0 0.0 0.00 0.00 0.00 55 1012.0
20260904212034 94 36 0.0 0.0 0.00 0.00 0.00 54 1012.0
20260904211537 95 40 0.0 0.0 0.00 0.00 0.00 53 1012.0
20260904211037 95 44 0.0 0.0 0.00 0.00 0.00 51 1012.0
20260904210533 95 24 0.0 0.0 0.00 0.00 0.00 53 1012.1
20260904210042 95 263 0.0 0.0 0.00 0.00 0.00 50 1012.0
20260904205533 95 34 0.0 0.0 0.00 0.00 0.00 50 1012.1
20260904205034 95 34 0.0 0.0 0.00 0.00 0.00 50 1012.2
20260904204532 96 11 0.0 0.0 0.00 0.00 0.00 51 1012.2
20260904204031 96 62 0.0 0.0 0.00 0.00 0.00 50 1012.3
20260904203531 95 9 0.0 0.0 0.00 0.00 0.00 51 1012.3
20260904203043 95 80 0.0 0.0 0.00 0.00 0.00 49 1012.4
20260904202529 96 102 0.0 0.0 0.00 0.00 0.00 50 1012.4
20260904202029 96 108 0.0 0.0 0.00 0.00 0.00 49 1012.4
20260904201529 95 127 0.0 0.0 0.00 0.00 0.00 51 1012.5
20260904201028 96 111 0.0 0.0 0.00 0.00 0.00 51 1012.6
20260904200528 95 94 0.0 0.0 0.00 0.00 0.00 52 1012.6
20260904200028 95 329 0.0 0.0 0.00 0.00 0.00 52 1012.6
20260904195529 95 138 0.0 0.0 0.00 0.00 0.00 53 1012.7
20260904195026 95 227 0.0 0.0 0.00 0.00 0.00 53 1012.8
20260904194525 95 93 0.0 0.0 0.00 0.00 0.00 53 1013.0
20260904194027 96 332 0.0 0.0 0.00 0.00 0.00 54 1013.0
20260904193531 95 54 0.0 0.0 0.00 0.00 0.00 53 1013.0
20260904193024 95 37 0.0 0.0 0.00 0.00 0.00 52 1013.2
20260904192522 95 69 0.0 0.0 0.00 0.00 0.00 50 1013.3
20260904192021 95 72 0.0 0.0 0.00 0.00 0.00 50 1013.4
20260904191520 95 98 0.0 0.0 0.00 0.00 0.00 52 1013.5
20260904191019 95 98 0.0 0.0 0.00 0.00 0.00 53 1013.6
20260904190518 95 294 0.0 0.0 0.00 0.00 0.00 51 1013.7
20260904190017 95 98 0.0 0.0 0.00 0.00 0.00 54 1013.7
20260904185515 94 65 0.0 0.0 0.00 0.00 0.00 57 1013.8
20260904185015 94 84 0.0 0.0 0.00 0.00 0.00 57 1014.0
20260904184523 94 74 0.0 0.0 0.00 0.00 0.00 58 1014.0
20260904184015 94 40 0.0 0.0 0.00 0.00 0.00 57 1014.1
20260904183514 93 97 0.0 0.0 0.00 0.00 0.00 59 1014.2
20260904183014 92 229 0.0 0.0 0.00 0.00 0.00 59 1014.2
20260904182513 93 237 0.0 0.0 0.00 0.00 0.00 57 1014.3
20260904182017 93 254 0.0 0.0 0.00 0.00 0.00 57 1014.3
20260904181513 93 247 0.0 0.0 0.00 0.00 0.00 56 1014.4
20260904181012 93 296 0.0 0.0 0.00 0.00 0.00 58 1014.5
20260904180513 93 322 0.0 0.0 0.00 0.00 0.00 56 1014.5
20260904180012 93 169 0.0 0.0 0.00 0.00 0.00 55 1014.5
20260904175512 93 190 0.0 0.0 0.00 0.00 0.00 56 1014.6
20260904175012 93 323 0.0 0.0 0.00 0.00 0.00 56 1014.7
20260904174511 93 294 0.0 0.0 0.00 0.00 0.00 59 1014.8
20260904174012 93 194 0.0 0.0 0.00 0.00 0.00 57 1014.9
20260904173510 93 355 0.0 0.0 0.00 0.00 0.00 56 1014.9
20260904173027 93 355 0.0 0.0 0.00 0.00 0.00 57 1014.9
20260904172508 92 279 0.0 0.0 0.00 0.00 0.00 58 1015.0
20260904172008 92 239 0.0 0.0 0.00 0.00 0.00 59 1015.1
20260904171507 91 242 0.0 0.0 0.00 0.00 0.00 59 1015.2
20260904171006 92 279 0.0 0.0 0.00 0.00 0.00 60 1015.3
20260904170509 91 248 0.0 0.0 0.00 0.00 0.00 60 1015.3
20260904170012 91 232 0.0 0.0 0.00 0.00 0.00 61 1015.4
20260904165504 91 281 0.0 0.0 0.00 0.00 0.00 62 1015.4
20260904165004 91 245 0.0 0.0 0.00 0.00 0.00 62 1015.5
20260904164502 91 264 0.0 0.0 0.00 0.00 0.00 63 1015.5
20260904164002 90 345 0.0 0.0 0.00 0.00 0.00 63 1015.6
20260904163502 90 355 0.0 0.0 0.00 0.00 0.00 65 1015.6
20260904163000 90 293 0.0 0.0 0.00 0.00 0.00 68 1015.6
20260904162600 90 11 0.0 0.0 0.00 0.00 0.00 65 1015.7
20260904162103 89 239 0.0 0.0 0.00 0.00 0.00 65 1015.7
20260904161627 89 247 0.0 0.0 0.00 0.00 0.00 67 1015.8
20260904161100 89 344 0.0 0.0 0.00 0.00 0.00 67 1015.8
20260904160557 89 344 0.0 0.0 0.00 0.00 0.00 67 1015.8
20260904160057 88 272 0.0 0.0 0.00 0.00 0.00 68 1015.8
20260904155555 88 278 0.0 0.0 0.00 0.00 0.00 69 1015.9
20260904155054 88 349 0.0 0.0 0.00 0.00 0.00 69 1016.0
20260904154553 88 349 0.0 0.0 0.00 0.00 0.00 68 1016.0
20260904154053 88 241 0.0 0.0 0.00 0.00 0.00 69 1016.0
20260904153552 87 241 0.0 0.0 0.00 0.00 0.00 69 1016.0
20260904153055 87 210 0.0 0.0 0.00 0.00 0.00 70 1016.0
20260904152551 87 219 0.0 0.0 0.00 0.00 0.00 70 1016.0
20260904152051 87 355 0.0 0.0 0.00 0.00 0.00 70 1016.1
20260904151551 87 63 0.0 0.0 0.00 0.00 0.00 70 1016.1
20260904151049 87 84 0.0 0.0 0.00 0.00 0.00 71 1016.1